ON1TG-13 Weather Reports


Display with metric or nautical units.
time (UTC)temp
F
wind
direction
speed
MPH
gust
MPH
rain 1hr
in
rain 24hr
in
rain mn
in
humidity
%
barometer
mb
20260901234332 32 184 7.0 11.0 0.00 0.00 0.00 100
20260901232715 32 192 7.0 12.0 0.00 0.00 0.00 100
20260901231117 32 195 7.0 11.0 0.00 0.00 0.00 100
20260901225525 32 193 6.0 11.0 0.00 0.00 0.00 100
20260901223938 32 194 8.0 13.0 0.00 0.00 0.00 100
20260901220823 32 175 5.0 11.0 0.00 0.00 0.00 100
20260901215251 32 183 5.0 12.0 0.00 0.00 0.00 100
20260901213735 32 203 7.0 11.0 0.00 0.00 0.00 100
20260901212227 32 196 6.0 12.0 0.00 0.00 0.00 100
20260901210713 32 199 10.0 16.0 0.00 0.00 0.00 100
20260901205202 32 194 8.0 12.0 0.00 0.00 0.00 100
20260901203654 32 192 6.0 12.0 0.00 0.00 0.00 100
20260901202141 32 196 7.0 15.0 0.00 0.00 0.00 100
20260901200631 32 210 7.0 11.0 0.00 0.00 0.00 100
20260901195123 32 216 8.0 14.0 0.00 0.00 0.00 100
20260901193616 32 207 9.0 12.0 0.00 0.00 0.00 100
20260901192107 32 205 7.0 10.0 0.00 0.00 0.00 100
20260901190600 32 198 6.0 11.0 0.00 0.00 0.00 100
20260901185053 32 200 8.0 15.0 0.00 0.00 0.00 100
20260901183546 32 213 9.0 14.0 0.00 0.00 0.00 100
20260901182039 32 232 7.0 14.0 0.00 0.00 0.00 100
20260901180532 32 253 7.0 14.0 0.00 0.00 0.00 100
20260901175025 32 250 7.0 14.0 0.00 0.00 0.00 100
20260901173518 32 240 9.0 15.0 0.00 0.00 0.00 100
20260901172011 32 278 11.0 16.0 0.00 0.00 0.00 100
20260901170504 32 275 10.0 18.0 0.00 0.00 0.00 100
20260901164957 32 271 10.0 19.0 0.00 0.00 0.00 100
20260901163451 32 268 5.0 14.0 0.00 0.00 0.00 100
20260901161944 32 278 13.0 18.0 0.00 0.00 0.00 100
20260901153423 32 271 11.0 17.0 0.00 0.00 0.00 100
20260901151916 32 283 10.0 19.0 0.00 0.00 0.00 100
20260901150409 32 267 8.0 16.0 0.00 0.00 0.00 100
20260901144902 32 304 10.0 18.0 0.00 0.00 0.00 100
20260901143356 32 277 12.0 17.0 0.00 0.00 0.00 100
20260901141848 32 293 11.0 19.0 0.00 0.00 0.00 100
20260901140341 32 262 8.0 15.0 0.00 0.00 0.00 100
20260901134835 32 291 11.0 17.0 0.00 0.00 0.00 100
20260901133328 32 299 10.0 17.0 0.00 0.00 0.00 100
20260901131821 32 271 11.0 16.0 0.00 0.00 0.00 100
20260901130314 32 274 11.0 17.0 0.00 0.00 0.00 100
20260901124807 32 292 10.0 16.0 0.00 0.00 0.00 100
20260901121753 32 278 10.0 15.0 0.00 0.00 0.00 100
20260901120246 32 270 10.0 17.0 0.00 0.00 0.00 100
20260901114739 32 311 12.0 17.0 0.00 0.00 0.00 100
20260901113232 32 279 9.0 17.0 0.00 0.00 0.00 100
20260901110218 32 243 8.0 16.0 0.00 0.00 0.00 100
20260901104717 32 279 7.0 13.0 0.00 0.00 0.00 100
20260901103204 32 262 7.0 16.0 0.00 0.00 0.00 100
20260901101657 32 303 7.0 14.0 0.00 0.00 0.00 100
20260901100151 32 296 7.0 14.0 0.00 0.00 0.00 100
20260901094644 32 299 7.0 14.0 0.00 0.00 0.00 100
20260901093137 32 295 10.0 16.0 0.00 0.00 0.00 100
20260901091630 32 302 10.0 14.0 0.00 0.00 0.00 100
20260901090123 32 305 9.0 14.0 0.00 0.00 0.00 100
20260901084615 32 293 9.0 14.0 0.00 0.00 0.00 100
20260901083108 32 266 6.0 13.0 0.00 0.00 0.00 100
20260901080054 32 269 7.0 13.0 0.00 0.00 0.00 100
20260901071533 32 275 8.0 12.0 0.00 0.00 0.00 100
20260901070026 32 312 7.0 12.0 0.00 0.00 0.00 100
20260901063012 32 302 7.0 16.0 0.00 0.00 0.00 100
20260901061505 32 279 11.0 14.0 0.00 0.00 0.00 100
20260901054451 32 295 6.0 9.0 0.00 0.00 0.00 100
20260901052944 32 303 5.0 12.0 0.00 0.00 0.00 100
20260901051437 32 302 5.0 13.0 0.00 0.00 0.00 100
20260901045930 32 304 5.0 10.0 0.00 0.00 0.00 100
20260901044423 32 323 4.0 11.0 0.00 0.00 0.00 100
20260901042916 32 327 5.0 11.0 0.00 0.00 0.00 100
20260901041410 32 334 7.0 11.0 0.00 0.00 0.00 100
20260901035902 32 331 8.0 13.0 0.00 0.00 0.00 100
20260901032847 32 335 7.0 15.0 0.00 0.00 0.00 100
20260901031340 32 332 6.0 19.0 0.00 0.00 0.00 100
20260901025833 32 325 7.0 17.0 0.00 0.00 0.00 100
20260901024326 32 325 9.0 16.0 0.00 0.00 0.00 100
20260901022819 32 343 8.0 17.0 0.00 0.00 0.00 100
20260901021312 32 340 8.0 16.0 0.00 0.00 0.00 100
20260901015805 32 283 6.0 9.0 0.00 0.00 0.00 100
20260901014258 32 169 3.0 5.0 0.00 0.00 0.00 100
20260901012751 32 183 5.0 8.0 0.00 0.00 0.00 100
20260901011245 32 199 5.0 8.0 0.00 0.00 0.00 100
20260901005738 32 187 7.0 12.0 0.00 0.00 0.00 100
20260901002724 32 205 8.0 13.0 0.00 0.00 0.00 100
20260901001217 32 196 9.0 14.0 0.00 0.00 0.00 100